カタログに戻る

STARLINK-3909

運用中通信VLEO
NORAD 52452·PAYLOAD·🇺🇸 United States

打ち上げ May 6, 2022 から Cape Canaveral Space Force Station

Loading…

次のパス (今後24時間)

TLE

最新Source: CelesTrak SupGP

元期: Sep 14, 2026, 13:23 UTC

1 52452C 22049B   26257.55812500  .00593160  00000+0  22564-1 0  2573
2 52452  53.1610 298.6315 0001212  74.4441  91.2709 15.25936573    15

AllMySatでSTARLINK-3909をリアルタイム追跡

Download on the App Store